FENGYUN 1C DEB, 32214

Orbit data source: Space-Track

FENGYUN 1C DEB, 32214 is space debris in SSO originally from a launch on Mon, 10 May 1999 UTC launched from the Taiyaun Space Center, China (TSC). Fengyun 1C debris stems from the Chinese weather satellite Fengyun-1C, which was intentionally destroyed by a Chinese anti-satellite missile in 2007. This event dramatically increased the amount of space debris, with thousands of trackable fragments posing hazards to satellites and human spaceflight. The Fengyun 1C debris cloud has become a focal point in discussions about space sustainability and the need for international regulations to prevent the creation of new debris.

Loading next visibility...
Identifier
32214, 1999-025CVL
Orbit
SSO
Country
Flag of CNCN / PRC
Related business
Manufacturer
Unknown
Mission
Spacecraft
Bus & Motor
Unknown
Mass
Unknown
Launch date (UTC)
1999-05-10 (27 years ago)
Launch vehicle
Unknown
Launch site
Taiyaun Space Center, China (TSC)
Object type
Payload
Rocket body
Debris
Shape & HBR
Unknown shape, 0.1 m
Radar Cross Section
Medium (>0.1 m² and <1 m²)

Expand to show TLE details & history
Last TLE update: 2 days ago

TLE from 2 days ago
0 FENGYUN 1C DEB
1 32214U 99025CVL 26171.35298691  .00004896  00000-0  33743-2 0  9996
2 32214  99.0284 197.1045 0177693 243.1608 132.0585 13.92401300650592
Epoch: 2026-06-20T08:28Z
TLE epoch observation values (Epoch: 2026-06-20T08:28:18.069Z)
Latitude
16.47982°
Longitude
158.7801°
Altitude
1,010.593 km
Speed
7.303 km/s
True Right ascension
12h 57m 41s
True Declination
16° 23' 23"
Sunlit
Object was in daylight at epoch
Visualization orbit readout
Latitude
Unknown
Longitude
Unknown
Altitude
Unknown
Speed
Unknown
Apparent Right ascension
Unknown
Apparent Declination
Unknown
Sunlit
N/A
Visualization observer readout
Local Sidereal Time
07:04:05
Azimuth
Unknown
Elevation
Unknown
Doppler factor
Unknown
Orbital elements
Apogee altitude
1,047.075 km
Perigee altitude
787.8 km
Semi-major axis
7,295.574 km
Eccentricity
0.01777
Inclination
99.0284°
RAAN
197.1045°
Arg. of periapsis
243.1608°
True anomaly
133.54796°
Mean anomaly
132.0585°
Eccentric anomaly
132.80545°
Mean motion
3.483 °/min
Orbital period
103.36 mins
BSTAR
0.0033743
Loading maneuver chart data...
Computing Atmospheric mass density...

Documentation

Showing up to 5 results
|